Skip Page Navigation
NASA JPL Caltech
NASA Logo - Jet Propulsion Laboratory + View the NASA Portal
+ Near-Earth Object (NEO) Program
Search JPL
JPL Home Earth Solar System Stars & Galaxies Technology
JPL Solar System Dynamics
BODIES ORBITS EPHEMERIDES TOOLS PHYSICAL DATA DISCOVERY FAQ SITE MAP
JPL Small-Body Database Browser
Search: [ help ]  
(2001 EB18)
Classification: Apollo [NEO, PHA]          SPK-ID: 3071763
Ephemeris | Orbit Diagram | Orbital Elements | Physical Parameters | Close-Approach Data ]

[ hide orbit diagram ]
Orbit Diagram
Note: Make sure you have Java enabled on your browser to see the applet. This applet is provided as a 3D orbit visualization tool. The applet was implemented using 2-body methods, and hence should not be used for determining accurate long-term trajectories (over several years or decades) or planetary encounter circumstances. For accurate long-term ephemerides, please instead use our Horizons system.
Orbit Viewer

Additional Notes: the orbits shown in the applet are color coded. The planets are white lines, and the asteroid/comet is a blue line. The bright white line indicates the portion of the orbit that is above the ecliptic plane, and the darker portion is below the ecliptic plane. Likewise for the asteroid/comet orbit, the light blue indicates the portion above the ecliptic plane, and the dark blue the portion below the ecliptic plane.

Orbit Viewer applet originally written and kindly provided by Osamu Ajiki (AstroArts), and further modified by Ron Baalke (JPL).


Orbital Elements at Epoch 2456400.5 (2013-Apr-18.0) TDB
Reference: JPL 12 (heliocentric ecliptic J2000)
 Element Value Uncertainty (1-sigma)   Units 
e .1837361392574507 1.362e-07  
a 1.05311140836952 1.7241e-08 AU
q .8596167839877277 1.4038e-07 AU
i 50.05951617057489 0.00010964 deg
node 155.4883687576292 9.1154e-06 deg
peri 101.9378298222786 4.7599e-05 deg
M .4302299932773463 9.7453e-05 deg
tp 2456400.028254152401
(2013-Apr-17.52825415)
0.00010685 JED
period 394.738878714486
1.08
9.6939e-06
2.654e-08
d
yr
n .9119952946423284 2.2396e-08 deg/d
Q 1.246606032751312 2.0409e-08 AU
  Orbit Determination Parameters
   # obs. used (total)      38  
   # delay obs. used      3  
   # Doppler obs. used      1  
   data-arc span      4331 days (11.86 yr)  
   first obs. used      2001-03-01  
   last obs. used      2013-01-08  
   planetary ephem.      DE405  
   SB-pert. ephem.      SB405-CPV-2  
   condition code      0  
   fit RMS      .69936  
   data source      ORB  
   producer      Otto Matic  
   solution date      2013-Jan-09 00:50:33  

Additional Information
 Earth MOID = .0286624 AU 
 T_jup = 5.509 
[ show covariance matrix ]

Ephemeris | Orbit Diagram | Orbital Elements | Physical Parameters | Close-Approach Data ]

Physical Parameter Table
Parameter Symbol Value Units Sigma Reference Notes
absolute magnitude H 19.085 mag .81658 12 autocmod 2.5b

[ show close-approach data ]
Ephemeris | Orbit Diagram | Orbital Elements | Physical Parameters | Close-Approach Data ]
ABOUT SSD CREDITS/AWARDS PRIVACY/COPYRIGHT GLOSSARY LINKS
FirstGov 2013-May-20 06:09 UT
(server date/time)  
NASA Home Page
Site Manager:   Donald K. Yeomans
Webmaster  Alan B. Chamberlin